Socorro, NM

11:15 PM MDT on April 21, 2018 (GMT -0600)
Socorro Municipal

Weather History for KONM - January, 2013

Change the Weather History Date:

Wednesday, January 16, 2013

  Actual Average Record
Temperature  
Mean Temperature 28 °F -  
Max Temperature 43 °F 54 °F 62 °F (2012)
Min Temperature 13 °F 22 °F 13 °F (2013)
Degree Days  
Heating Degree Days 37    
Moisture  
Dew Point 3 °F    
Average Humidity 37    
Maximum Humidity 50    
Minimum Humidity 21    
Precipitation  
Precipitation 0.00 in - - ()
Sea Level Pressure  
Sea Level Pressure 30.36 in    
Wind  
Wind Speed 10 mph (North)    
Max Wind Speed 22 mph    
Max Gust Speed 28 mph    
Visibility 10 miles    
Events      
Averages and records for this station are not official NWS values.
T = Trace of Precipitation, MM = Missing Value Source: NWS Daily Summary

Daily Weather History Graph

Daily Weather History Graph

Search for Another Location

Airport or City:

Astronomy

Jan. 16, 2013 Rise Set
Actual Time 7:12 AM MST 5:22 PM MST
Civil Twilight 6:45 AM MST 5:49 PM MST
Nautical Twilight 6:14 AM MST 6:20 PM MST
Astronomical Twilight 5:44 AM MST 6:50 PM MST
Moon 10:07 AM MST (1/16) 10:58 PM MST (1/16)
Length of Visible Light 11h 04m
Length of Day
10h 10m
Waxing Crescent, 29% of the Moon is Illuminated
Jan 16
Waxing Crescent
Jan 18
First Quarter
Jan 26
Full
Feb 3
Last Quarter
Feb 10
New

Hourly Weather History & Observations

Time (MST) Temp. Windchill Dew Point Humidity Pressure Visibility Wind Dir Wind Speed Gust Speed Precip Events Conditions
12:15 AM 16.7 °F 3.8 °F -2.2 °F 43% 30.35 in 10.0 mi NNW 11.5 mph - N/A   Clear
12:35 AM 15.6 °F 1.8 °F -2.2 °F 45% 30.34 in 10.0 mi NW 12.7 mph - N/A   Clear
1:15 AM 16.2 °F 1.9 °F -1.7 °F 45% 30.34 in 10.0 mi NW 13.8 mph - N/A   Clear
1:35 AM 16.9 °F 6.4 °F -0.9 °F 46% 30.35 in 10.0 mi NNW 8.1 mph - N/A   Clear
2:15 AM 17.2 °F 6.0 °F -0.4 °F 46% 30.35 in 10.0 mi NNW 9.2 mph - N/A   Clear
2:35 AM 19.0 °F 7.5 °F -0.4 °F 43% 30.36 in 10.0 mi North 10.4 mph - N/A   Clear
2:55 AM 19.8 °F 9.1 °F -0.4 °F 41% 30.36 in 10.0 mi North 9.2 mph - N/A   Clear
3:15 AM 19.0 °F 6.8 °F -0.6 °F 42% 30.35 in 10.0 mi NNW 11.5 mph - N/A   Clear
3:35 AM 18.9 °F 7.2 °F -0.6 °F 43% 30.34 in 10.0 mi NNW 10.4 mph - N/A   Clear
3:55 AM 17.2 °F 6.0 °F -0.9 °F 45% 30.35 in 10.0 mi NW 9.2 mph - N/A   Clear
4:15 AM 18.3 °F 7.3 °F -0.4 °F 44% 30.34 in 10.0 mi NNW 9.2 mph - N/A   Clear
4:35 AM 17.6 °F 10.7 °F -0.8 °F 45% 30.35 in 10.0 mi North 4.6 mph - N/A   Clear
4:55 AM 15.4 °F 4.6 °F -0.9 °F 48% 30.35 in 10.0 mi North 8.1 mph - N/A   Clear
5:15 AM 14.9 °F 2.3 °F -1.3 °F 49% 30.34 in 10.0 mi North 10.4 mph - N/A   Clear
5:35 AM 14.7 °F 0.7 °F -1.5 °F 49% 30.33 in 10.0 mi North 12.7 mph - N/A   Clear
5:55 AM 14.9 °F 2.3 °F -1.7 °F 48% 30.35 in 10.0 mi North 10.4 mph - N/A   Clear
6:15 AM 14.0 °F 3.9 °F -2.2 °F 49% 30.35 in 10.0 mi North 6.9 mph - N/A   Clear
6:35 AM 13.6 °F 0.7 °F -2.2 °F 49% 30.36 in 10.0 mi North 10.4 mph - N/A   Clear
6:55 AM 13.1 °F 0.1 °F -2.6 °F 50% 30.37 in 10.0 mi North 10.4 mph - N/A   Clear
7:15 AM 13.1 °F 0.1 °F -2.4 °F 50% 30.37 in 10.0 mi North 10.4 mph - N/A   Clear
7:35 AM 14.0 °F 3.9 °F -2.2 °F 49% 30.39 in 10.0 mi North 6.9 mph - N/A   Clear
7:55 AM 15.6 °F 3.2 °F -2.2 °F 45% 30.40 in 10.0 mi North 10.4 mph - N/A   Clear
8:15 AM 16.5 °F 3.0 °F -2.2 °F 44% 30.41 in 10.0 mi North 12.7 mph - N/A   Clear
8:35 AM 17.4 °F 4.7 °F -2.0 °F 42% 30.42 in 10.0 mi North 11.5 mph 18.4 mph N/A   Clear
8:55 AM 19.6 °F 6.2 °F -1.5 °F 40% 30.41 in 10.0 mi North 13.8 mph 17.3 mph N/A   Clear
9:15 AM 22.3 °F 9.7 °F -0.9 °F 36% 30.41 in 10.0 mi North 13.8 mph - N/A   Clear
9:35 AM 25.2 °F 12.4 °F -0.2 °F 33% 30.42 in 10.0 mi North 16.1 mph - N/A   Clear
9:55 AM 27.0 °F 14.3 °F 0.3 °F 32% 30.42 in 10.0 mi North 17.3 mph 21.9 mph N/A   Clear
10:15 AM 28.4 °F 14.7 °F 0.7 °F 30% 30.41 in 10.0 mi North 21.9 mph 26.5 mph N/A   Clear
10:35 AM 30.0 °F 17.5 °F 1.4 °F 29% 30.41 in 10.0 mi North 19.6 mph 27.6 mph N/A   Clear
10:55 AM 30.7 °F 18.8 °F 1.8 °F 29% 30.40 in 10.0 mi North 18.4 mph 23.0 mph N/A   Clear
11:15 AM 32.0 °F 20.8 °F 2.1 °F 28% 30.40 in 10.0 mi North 17.3 mph 25.3 mph N/A   Clear
11:35 AM 32.9 °F 22.0 °F 2.1 °F 27% 30.38 in 10.0 mi North 17.3 mph - N/A   Clear
11:55 AM 34.9 °F 25.7 °F 2.5 °F 26% 30.37 in 10.0 mi North 13.8 mph 21.9 mph N/A   Clear
12:15 PM 36.5 °F 27.8 °F 3.2 °F 25% 30.35 in 10.0 mi NNE 13.8 mph - N/A   Clear
12:35 PM 38.3 °F 30.9 °F 3.4 °F 23% 30.35 in 10.0 mi North 11.5 mph 16.1 mph N/A   Clear
12:55 PM 39.0 °F 31.4 °F 3.9 °F 23% 30.34 in 10.0 mi North 12.7 mph 18.4 mph N/A   Clear
1:15 PM 39.6 °F 33.0 °F 4.3 °F 23% 30.32 in 10.0 mi North 10.4 mph 16.1 mph N/A   Clear
1:35 PM 40.6 °F 34.8 °F 4.6 °F 22% 30.30 in 10.0 mi North 9.2 mph - N/A   Clear
1:55 PM 41.5 °F 35.9 °F 5.0 °F 22% 30.30 in 10.0 mi North 9.2 mph - N/A   Clear
2:15 PM 42.8 °F 37.0 °F 5.5 °F 22% 30.30 in 10.0 mi NNW 10.4 mph 17.3 mph N/A   Clear
2:35 PM 42.4 °F 36.5 °F 5.5 °F 22% 30.29 in 10.0 mi NNW 10.4 mph 16.1 mph N/A   Clear
2:55 PM 42.8 °F 36.6 °F 5.7 °F 22% 30.29 in 10.0 mi North 11.5 mph - N/A   Clear
3:35 PM 43.3 °F 38.1 °F 5.9 °F 21% 30.29 in 10.0 mi North 9.2 mph - N/A   Clear
3:55 PM 43.0 °F 38.2 °F 6.1 °F 22% 30.30 in 10.0 mi NNW 8.1 mph - N/A   Clear
4:15 PM 42.8 °F 38.0 °F 6.4 °F 22% 30.30 in 10.0 mi North 8.1 mph - N/A   Clear
4:35 PM 42.3 °F 36.8 °F 6.4 °F 23% 30.30 in 10.0 mi North 9.2 mph - N/A   Clear
4:55 PM 41.0 °F 36.4 °F 6.3 °F 24% 30.31 in 10.0 mi North 6.9 mph - N/A   Clear
5:15 PM 38.5 °F 34.1 °F 5.9 °F 26% 30.33 in 10.0 mi NNW 5.8 mph - N/A   Clear
5:35 PM 35.4 °F 29.7 °F 5.9 °F 29% 30.33 in 10.0 mi NNW 6.9 mph - N/A   Clear
5:55 PM 33.4 °F 28.1 °F 5.7 °F 31% 30.33 in 10.0 mi NW 5.8 mph - N/A   Clear
6:15 PM 32.7 °F 25.7 °F 5.9 °F 32% 30.35 in 10.0 mi NW 8.1 mph - N/A   Clear
6:35 PM 32.0 °F 25.6 °F 5.9 °F 33% 30.35 in 10.0 mi North 6.9 mph - N/A   Clear
6:55 PM 31.8 °F 23.9 °F 5.9 °F 34% 30.36 in 10.0 mi NNW 9.2 mph - N/A   Clear
7:15 PM 31.1 °F 24.5 °F 6.4 °F 35% 30.37 in 10.0 mi NNW 6.9 mph - N/A   Clear
7:35 PM 30.2 °F 24.3 °F 6.8 °F 37% 30.38 in 10.0 mi NNW 5.8 mph - N/A   Clear
7:55 PM 29.3 °F 24.3 °F 7.3 °F 40% 30.38 in 10.0 mi North 4.6 mph - N/A   Clear
8:15 PM 28.2 °F 23.1 °F 6.6 °F 40% 30.39 in 10.0 mi North 4.6 mph - N/A   Clear
8:35 PM 27.3 °F 22.0 °F 6.8 °F 42% 30.39 in 10.0 mi NNW 4.6 mph - N/A   Clear
8:55 PM 27.3 °F 22.0 °F 6.4 °F 41% 30.39 in 10.0 mi NNW 4.6 mph - N/A   Clear
9:15 PM 27.3 °F 23.4 °F 6.6 °F 42% 30.40 in 10.0 mi NNW 3.5 mph - N/A   Clear
9:35 PM 27.9 °F 22.6 °F 6.6 °F 41% 30.40 in 10.0 mi NNW 4.6 mph - N/A   Clear
9:55 PM 26.6 °F 19.1 °F 5.9 °F 41% 30.40 in 10.0 mi North 6.9 mph - N/A   Clear
10:15 PM 25.3 °F 17.6 °F 5.9 °F 44% 30.42 in 10.0 mi North 6.9 mph - N/A   Clear
10:35 PM 26.4 °F 17.3 °F 6.3 °F 42% 30.42 in 10.0 mi North 9.2 mph - N/A   Clear
10:55 PM 26.4 °F 18.0 °F 5.5 °F 41% 30.42 in 10.0 mi North 8.1 mph - N/A   Clear
11:15 PM 25.5 °F 17.8 °F 7.2 °F 46% 30.43 in 10.0 mi NNW 6.9 mph - N/A   Clear
11:35 PM 28.0 °F 20.0 °F 9.7 °F 46% 30.43 in 10.0 mi North 8.1 mph - N/A   Clear
11:55 PM 25.2 °F 16.5 °F 7.9 °F 48% 30.43 in 10.0 mi North 8.1 mph - N/A   Clear